This demonstration page uses our WeatherBlox Daily Observations layout. Learn more.

Left ArrowRight Arrow

44.8408, -93.29828

Hourly Observations for May 24, 2016

Temp ( °F °C ) Dew Point ( °F °C ) Humidity (%) Winds ( mph kmh ) Pressure ( in mb ) Visibility ( mi km ) Precip ( " mm )
12:01 am 00:01 Cloudy with Light Rain 66 18.9 60 15.6 81 81 ENE 10 17 29.80 1009 10 16 0.00 0.03
12:53 am 00:53 Partly Cloudy 66 18.9 60 15.6 81 81 SE 9 15 29.79 1009 10 16 0.00 0.03
1:53 am 01:53 Cloudy 67 19.4 61 16.1 81 81 S 6 9 29.78 1009 10 16 0.00 0.03
2:53 am 02:53 Cloudy 68 20 60 15.6 76 76 SSW 7 11 29.78 1009 10 16 0.00 0.00
3:53 am 03:53 Partly Cloudy 68 20 59 15 73 73 SSW 8 13 29.78 1008 10 16 0.00 0.00
4:53 am 04:53 Partly Cloudy 67 19.4 59 15 76 76 SSW 8 13 29.78 1009 10 16 0.00 0.00
5:42 am 05:42 Mostly Cloudy 66 19 59 15 78 78 SW 7 11 29.83 1010 10 16 0.00 0.00
5:53 am 05:53 Mostly Cloudy 67 19.4 59 15 76 76 SSW 6 9 29.81 1009 10 16 0.00 0.00
6:53 am 06:53 Partly Cloudy 66 18.9 59 15 78 78 SW 7 11 29.82 1010 10 16 0.00 0.00
7:53 am 07:53 Partly Cloudy 68 20 60 15.6 76 76 WSW 8 13 29.83 1010 10 16 0.00 0.00
8:53 am 08:53 Mostly Cloudy 71 21.7 61 16.1 71 71 W 10 17 29.84 1011 10 16 0.00 0.00
9:53 am 09:53 Mostly Cloudy 74 23.3 62 16.7 67 67 WSW 9 15 29.84 1011 10 16 0.00 0.00
10:53 am 10:53 Mostly Cloudy 77 25 60 15.6 56 56 W 9 15 29.85 1011 10 16 0.00 0.00
11:53 am 11:53 Mostly Cloudy 76 24.4 62 16.7 62 62 NW 8 13 29.87 1012 10 16 0.00 0.00
12:53 pm 12:53 Partly Cloudy 80 26.7 59 15 49 49 Calm 29.88 1012 10 16 0.00 0.00
1:53 pm 13:53 Partly Cloudy 82 27.8 55 12.8 40 40 VRB 6 9 29.87 1012 10 16 0.00 0.00
2:53 pm 14:53 Partly Cloudy 84 28.9 55 12.8 37 37 WNW 6 9 29.86 1011 10 16 0.00 0.00
3:53 pm 15:53 Partly Cloudy 83 28.3 52 11.1 34 34 WNW 9 15 29.86 1011 10 16 0.00 0.00
4:53 pm 16:53 Partly Cloudy 84 28.9 48 8.9 29 29 VRB 3 6 29.87 1011 10 16 0.00 0.00
5:53 pm 17:53 Mostly Cloudy 86 30 50 10 29 29 NNW 5 7 29.86 1011 10 16 0.00 0.00
6:53 pm 18:53 Mostly Cloudy 81 27.2 49 9.4 33 33 NNE 6 9 29.86 1011 10 16 0.00 0.00
7:53 pm 19:53 Mostly Cloudy 80 26.7 49 9.4 34 34 NNE 8 13 29.86 1011 10 16 0.00 0.00
8:53 pm 20:53 Partly Cloudy 79 26.1 48 8.9 34 34 E 9 15 29.87 1012 10 16 0.00 0.00
9:53 pm 21:53 Mostly Clear 77 25 51 10.6 40 40 ESE 8 13 29.88 1012 10 16 0.00 0.00
10:53 pm 22:53 Mostly Clear 74 23.3 54 12.2 50 50 SE 7 11 29.89 1012 10 16 0.00 0.00
11:53 pm 23:53 Mostly Clear 71 21.7 57 13.9 61 61 SE 5 7 29.89 1012 10 16 0.00 0.00

Powered by AerisWeather